Time,TemperatureF,DewpointF,PressureIn,WindDirection,WindDirectionDegrees,WindSpeedMPH,WindSpeedGustMPH,Humidity,HourlyPrecipIn,Conditions,Clouds,dailyrainin,SoftwareType,DateUTC
2013-05-18 00:02:00,53.0,29.0,-100.00,SW,216,13.0,22.0,41,0.00,,,-99.99,,2013-05-18 06:02:00,
2013-05-18 00:11:00,52.0,29.0,-100.00,SW,216,9.0,16.0,41,0.00,,,-99.99,,2013-05-18 06:11:00,
2013-05-18 00:22:00,51.0,28.0,-100.00,WNW,282,7.0,12.0,41,0.00,,,-99.99,,2013-05-18 06:22:00,
2013-05-18 00:32:00,52.0,29.0,-100.00,NNW,342,7.0,13.0,40,0.00,,,-99.99,,2013-05-18 06:32:00,
2013-05-18 00:42:00,53.0,29.0,-100.00,NW,319,5.0,13.0,39,0.00,,,-99.99,,2013-05-18 06:42:00,
2013-05-18 00:52:00,53.0,29.0,-100.00,SW,229,8.0,13.0,40,0.00,,,-99.99,,2013-05-18 06:52:00,
2013-05-18 01:01:00,52.0,30.0,-100.00,WSW,241,9.0,12.0,43,0.00,,,-99.99,,2013-05-18 07:01:00,
2013-05-18 01:11:00,51.0,30.0,-100.00,WSW,240,7.0,10.0,44,0.00,,,-99.99,,2013-05-18 07:11:00,
2013-05-18 01:21:00,50.0,31.0,-100.00,WSW,239,6.0,7.0,47,0.00,,,-99.99,,2013-05-18 07:21:00,
2013-05-18 01:31:00,51.0,30.0,-100.00,WSW,241,6.0,12.0,45,0.00,,,-99.99,,2013-05-18 07:31:00,
2013-05-18 01:42:00,50.0,31.0,-100.00,WSW,250,9.0,11.0,48,0.00,,,-99.99,,2013-05-18 07:42:00,
2013-05-18 01:52:00,48.0,32.0,-100.00,WNW,287,9.0,14.0,53,0.00,,,-99.99,,2013-05-18 07:52:00,
2013-05-18 02:01:00,48.0,32.0,-100.00,West,265,4.0,7.0,55,0.00,,,-99.99,,2013-05-18 08:01:00,
2013-05-18 02:11:00,48.0,32.0,-100.00,West,264,4.0,8.0,53,0.00,,,-99.99,,2013-05-18 08:11:00,
2013-05-18 02:21:00,48.0,32.0,-100.00,West,261,6.0,9.0,53,0.00,,,-99.99,,2013-05-18 08:21:00,
2013-05-18 02:32:00,47.0,32.0,-100.00,WNW,282,7.0,12.0,55,0.00,,,-99.99,,2013-05-18 08:32:00,
2013-05-18 02:42:00,47.0,31.0,-100.00,West,268,5.0,7.0,53,0.00,,,-99.99,,2013-05-18 08:42:00,
2013-05-18 02:52:00,47.0,32.0,-100.00,West,265,7.0,11.0,54,0.00,,,-99.99,,2013-05-18 08:52:00,
2013-05-18 03:02:00,47.0,32.0,-100.00,West,267,7.0,9.0,56,0.00,,,-99.99,,2013-05-18 09:02:00,
2013-05-18 03:11:00,47.0,32.0,-100.00,West,260,6.0,9.0,57,0.00,,,-99.99,,2013-05-18 09:11:00,
2013-05-18 03:22:00,45.0,31.0,-100.00,SW,226,6.0,7.0,59,0.00,,,-99.99,,2013-05-18 09:22:00,
2013-05-18 03:32:00,45.0,31.0,-100.00,SSW,206,6.0,7.0,58,0.00,,,-99.99,,2013-05-18 09:32:00,
2013-05-18 03:43:00,46.0,31.0,-100.00,SSW,208,6.0,7.0,56,0.00,,,-99.99,,2013-05-18 09:43:00,
2013-05-18 03:53:00,45.0,30.0,-100.00,SSE,157,4.0,6.0,56,0.00,,,-99.99,,2013-05-18 09:53:00,
2013-05-18 04:03:00,44.0,29.0,-100.00,SSE,147,7.0,9.0,56,0.00,,,-99.99,,2013-05-18 10:03:00,
2013-05-18 04:12:00,44.0,29.0,-100.00,SSE,150,9.0,11.0,54,0.00,,,-99.99,,2013-05-18 10:12:00,
2013-05-18 04:22:00,44.0,27.0,-100.00,SSE,148,9.0,11.0,50,0.00,,,-99.99,,2013-05-18 10:22:00,
2013-05-18 04:33:00,45.0,27.0,-100.00,South,175,4.0,9.0,49,0.00,,,-99.99,,2013-05-18 10:33:00,
2013-05-18 04:42:00,45.0,25.0,-100.00,South,191,2.0,4.0,44,0.00,,,-99.99,,2013-05-18 10:42:00,
2013-05-18 04:52:00,46.0,25.0,-100.00,SSW,193,4.0,6.0,44,0.00,,,-99.99,,2013-05-18 10:52:00,
2013-05-18 05:03:00,45.0,24.0,-100.00,SW,216,4.0,7.0,45,0.00,,,-99.99,,2013-05-18 11:03:00,
2013-05-18 05:12:00,45.0,24.0,-100.00,SSW,210,5.0,9.0,43,0.00,,,-99.99,,2013-05-18 11:12:00,
2013-05-18 05:22:00,45.0,24.0,-100.00,SSW,199,4.0,7.0,43,0.00,,,-99.99,,2013-05-18 11:22:00,
2013-05-18 05:33:00,48.0,24.0,-100.00,South,169,4.0,7.0,39,0.00,,,-99.99,,2013-05-18 11:33:00,
2013-05-18 05:42:00,47.0,24.0,-100.00,South,178,9.0,12.0,40,0.00,,,-99.99,,2013-05-18 11:42:00,
2013-05-18 05:52:00,46.0,25.0,-100.00,South,174,7.0,10.0,43,0.00,,,-99.99,,2013-05-18 11:52:00,
2013-05-18 06:01:00,47.0,26.0,-100.00,South,175,7.0,10.0,43,0.00,,,-99.99,,2013-05-18 12:01:00,
2013-05-18 06:12:00,44.0,26.0,-100.00,ENE,66,6.0,9.0,50,0.00,,,-99.99,,2013-05-18 12:12:00,
2013-05-18 06:23:00,45.0,28.0,-100.00,East,85,4.0,7.0,50,0.00,,,-99.99,,2013-05-18 12:23:00,
2013-05-18 06:33:00,45.0,29.0,-100.00,East,96,4.0,7.0,53,0.00,,,-99.99,,2013-05-18 12:33:00,
2013-05-18 06:42:00,45.0,28.0,-100.00,ESE,116,4.0,7.0,51,0.00,,,-99.99,,2013-05-18 12:42:00,
2013-05-18 06:52:00,46.0,28.0,-100.00,SSE,147,5.0,7.0,50,0.00,,,-99.99,,2013-05-18 12:52:00,
2013-05-18 07:01:00,46.0,29.0,-100.00,South,169,7.0,9.0,51,0.00,,,-99.99,,2013-05-18 13:01:00,
2013-05-18 07:11:00,46.0,29.0,-100.00,South,176,7.0,9.0,50,0.00,,,-99.99,,2013-05-18 13:11:00,
2013-05-18 07:21:00,47.0,30.0,-100.00,South,188,8.0,11.0,50,0.00,,,-99.99,,2013-05-18 13:21:00,
2013-05-18 07:33:00,48.0,30.0,-100.00,South,182,7.0,9.0,49,0.00,,,-99.99,,2013-05-18 13:33:00,
2013-05-18 07:43:00,48.0,31.0,-100.00,SSW,199,6.0,9.0,51,0.00,,,-99.99,,2013-05-18 13:43:00,
2013-05-18 07:52:00,49.0,28.0,-100.00,South,179,2.0,6.0,44,0.00,,,-99.99,,2013-05-18 13:52:00,
2013-05-18 08:03:00,51.0,31.0,-100.00,SSW,213,4.0,7.0,46,0.00,,,-99.99,,2013-05-18 14:03:00,
2013-05-18 08:12:00,53.0,27.0,-100.00,SW,224,2.0,6.0,37,0.00,,,-99.99,,2013-05-18 14:12:00,
2013-05-18 08:22:00,53.0,27.0,-100.00,WSW,240,2.0,4.0,36,0.00,,,-99.99,,2013-05-18 14:22:00,
2013-05-18 08:32:00,53.0,29.0,-100.00,SSW,199,3.0,6.0,40,0.00,,,-99.99,,2013-05-18 14:32:00,
2013-05-18 08:42:00,53.0,28.0,-100.00,South,181,2.0,4.0,39,0.00,,,-99.99,,2013-05-18 14:42:00,
2013-05-18 08:54:00,54.0,26.0,-100.00,South,182,2.0,4.0,34,0.00,,,-99.99,,2013-05-18 14:54:00,
2013-05-18 09:03:00,54.0,26.0,-100.00,South,182,2.0,4.0,34,0.00,,,-99.99,,2013-05-18 15:03:00,
2013-05-18 09:13:00,54.0,27.0,-100.00,South,186,4.0,6.0,35,0.00,,,-99.99,,2013-05-18 15:13:00,
2013-05-18 09:23:00,53.0,27.0,-100.00,SSE,167,4.0,10.0,37,0.00,,,-99.99,,2013-05-18 15:23:00,
2013-05-18 09:33:00,54.0,28.0,-100.00,SSE,160,6.0,10.0,37,0.00,,,-99.99,,2013-05-18 15:33:00,
2013-05-18 09:43:00,54.0,27.0,-100.00,South,181,5.0,9.0,35,0.00,,,-99.99,,2013-05-18 15:43:00,
2013-05-18 09:53:00,54.0,27.0,-100.00,SSW,203,7.0,12.0,35,0.00,,,-99.99,,2013-05-18 15:53:00,
2013-05-18 10:02:00,54.0,28.0,-100.00,South,189,7.0,12.0,36,0.00,,,-99.99,,2013-05-18 16:02:00,
2013-05-18 10:13:00,54.0,29.0,-100.00,South,186,9.0,12.0,37,0.00,,,-99.99,,2013-05-18 16:13:00,
2013-05-18 10:22:00,54.0,28.0,-100.00,SW,220,12.0,16.0,37,0.00,,,-99.99,,2013-05-18 16:22:00,
2013-05-18 10:33:00,54.0,28.0,-100.00,SW,220,11.0,17.0,36,0.00,,,-99.99,,2013-05-18 16:33:00,
2013-05-18 10:42:00,54.0,29.0,-100.00,SW,226,12.0,17.0,38,0.00,,,-99.99,,2013-05-18 16:42:00,
2013-05-18 10:52:00,54.0,29.0,-100.00,SSW,213,11.0,16.0,38,0.00,,,-99.99,,2013-05-18 16:52:00,
2013-05-18 11:02:00,54.0,28.0,-100.00,South,184,12.0,18.0,36,0.00,,,-99.99,,2013-05-18 17:02:00,
2013-05-18 11:12:00,54.0,28.0,-100.00,South,175,12.0,18.0,36,0.00,,,-99.99,,2013-05-18 17:12:00,
2013-05-18 11:22:00,55.0,29.0,-100.00,South,174,11.0,16.0,37,0.00,,,-99.99,,2013-05-18 17:22:00,
2013-05-18 11:32:00,55.0,30.0,-100.00,South,191,9.0,13.0,39,0.00,,,-99.99,,2013-05-18 17:32:00,
2013-05-18 11:42:00,55.0,32.0,-100.00,SW,222,12.0,16.0,41,0.00,,,-99.99,,2013-05-18 17:42:00,
2013-05-18 11:51:00,54.0,32.0,-100.00,South,179,18.0,26.0,43,0.00,,,-99.99,,2013-05-18 17:51:00,
2013-05-18 12:01:00,54.0,33.0,-100.00,South,188,11.0,21.0,43,0.00,,,-99.99,,2013-05-18 18:01:00,
2013-05-18 12:12:00,54.0,32.0,-100.00,South,184,10.0,19.0,43,0.00,,,-99.99,,2013-05-18 18:12:00,
2013-05-18 12:21:00,54.0,30.0,-100.00,South,179,15.0,23.0,39,0.00,,,-99.99,,2013-05-18 18:21:00,
2013-05-18 12:32:00,54.0,26.0,-100.00,SSW,195,14.0,22.0,33,0.00,,,-99.99,,2013-05-18 18:32:00,
2013-05-18 12:42:00,55.0,28.0,-100.00,SSW,212,11.0,16.0,35,0.00,,,-99.99,,2013-05-18 18:42:00,
2013-05-18 12:52:00,56.0,26.0,-100.00,South,189,16.0,29.0,31,0.00,,,-99.99,,2013-05-18 18:52:00,
2013-05-18 13:02:00,56.0,26.0,-100.00,South,178,16.0,27.0,30,0.00,,,-99.99,,2013-05-18 19:02:00,
2013-05-18 13:11:00,56.0,23.0,-100.00,South,185,13.0,25.0,27,0.00,,,-99.99,,2013-05-18 19:11:00,
2013-05-18 13:22:00,57.0,25.0,-100.00,SW,223,9.0,15.0,28,0.00,,,-99.99,,2013-05-18 19:22:00,
2013-05-18 13:32:00,58.0,24.0,-100.00,SW,215,7.0,14.0,27,0.00,,,-99.99,,2013-05-18 19:32:00,
2013-05-18 13:42:00,59.0,24.0,-100.00,South,174,10.0,17.0,25,0.00,,,-99.99,,2013-05-18 19:42:00,
2013-05-18 13:52:00,59.0,22.0,-100.00,South,191,9.0,26.0,24,0.00,,,-99.99,,2013-05-18 19:52:00,
2013-05-18 14:02:00,59.0,24.0,-100.00,SSE,157,12.0,21.0,26,0.00,,,-99.99,,2013-05-18 20:02:00,
2013-05-18 14:11:00,59.0,25.0,-100.00,SSE,158,15.0,21.0,27,0.00,,,-99.99,,2013-05-18 20:11:00,
2013-05-18 14:22:00,59.0,25.0,-100.00,SSE,155,11.0,20.0,27,0.00,,,-99.99,,2013-05-18 20:22:00,
2013-05-18 14:32:00,58.0,24.0,-100.00,SSW,198,12.0,21.0,27,0.00,,,-99.99,,2013-05-18 20:32:00,
2013-05-18 14:42:00,59.0,26.0,-100.00,SSE,167,7.0,12.0,28,0.00,,,-99.99,,2013-05-18 20:42:00,
2013-05-18 14:52:00,59.0,24.0,-100.00,SE,143,9.0,16.0,26,0.00,,,-99.99,,2013-05-18 20:52:00,
2013-05-18 15:01:00,58.0,24.0,-100.00,SE,143,11.0,21.0,26,0.00,,,-99.99,,2013-05-18 21:01:00,
2013-05-18 15:12:00,54.0,31.0,-100.00,South,182,17.0,35.0,42,0.00,,,-99.99,,2013-05-18 21:12:00,
2013-05-18 15:21:00,53.0,32.0,-100.00,SSW,209,24.0,36.0,46,0.00,,,-99.99,,2013-05-18 21:21:00,
2013-05-18 15:32:00,52.0,32.0,-100.00,SSW,205,26.0,34.0,46,0.00,,,-99.99,,2013-05-18 21:32:00,
2013-05-18 15:43:00,52.0,33.0,-100.00,SSW,202,21.0,35.0,48,0.00,,,-99.99,,2013-05-18 21:43:00,
2013-05-18 15:53:00,52.0,34.0,-100.00,SSW,198,21.0,30.0,50,0.00,,,-99.99,,2013-05-18 21:53:00,
2013-05-18 16:03:00,51.0,33.0,-100.00,SSW,202,22.0,31.0,49,0.00,,,-99.99,,2013-05-18 22:03:00,
2013-05-18 16:12:00,50.0,32.0,-100.00,SSW,202,22.0,30.0,49,0.00,,,-99.99,,2013-05-18 22:12:00,
2013-05-18 16:23:00,50.0,32.0,-100.00,SSW,203,22.0,29.0,51,0.00,,,-99.99,,2013-05-18 22:23:00,
2013-05-18 16:33:00,50.0,30.0,-100.00,SSW,196,26.0,34.0,46,0.00,,,-99.99,,2013-05-18 22:33:00,
2013-05-18 16:42:00,50.0,30.0,-100.00,SSW,202,24.0,34.0,45,0.00,,,-99.99,,2013-05-18 22:42:00,
2013-05-18 16:52:00,51.0,30.0,-100.00,SSW,206,23.0,33.0,44,0.00,,,-99.99,,2013-05-18 22:52:00,
2013-05-18 17:01:00,51.0,31.0,-100.00,SSW,208,21.0,31.0,46,0.00,,,-99.99,,2013-05-18 23:01:00,
2013-05-18 17:11:00,49.0,33.0,-100.00,SSW,202,25.0,34.0,54,0.00,,,-99.99,,2013-05-18 23:11:00,
2013-05-18 17:22:00,48.0,32.0,-100.00,SSW,196,28.0,40.0,54,0.00,,,-99.99,,2013-05-18 23:22:00,
2013-05-18 17:32:00,48.0,31.0,-100.00,South,189,30.0,45.0,52,0.00,,,-99.99,,2013-05-18 23:32:00,
2013-05-18 17:41:00,49.0,30.0,-100.00,SSW,192,29.0,40.0,48,0.00,,,-99.99,,2013-05-18 23:41:00,
2013-05-18 17:52:00,49.0,30.0,-100.00,SSW,193,24.0,35.0,47,0.00,,,-99.99,,2013-05-18 23:52:00,
2013-05-18 18:01:00,50.0,29.0,-100.00,South,181,18.0,27.0,45,0.00,,,-99.99,,2013-05-19 00:01:00,
2013-05-18 18:11:00,50.0,29.0,-100.00,South,178,16.0,22.0,43,0.00,,,-99.99,,2013-05-19 00:11:00,
2013-05-18 18:21:00,52.0,26.0,-100.00,South,178,19.0,27.0,37,0.00,,,-99.99,,2013-05-19 00:21:00,
2013-05-18 18:32:00,52.0,25.0,-100.00,South,181,21.0,29.0,34,0.00,,,-99.99,,2013-05-19 00:32:00,
2013-05-18 18:41:00,52.0,26.0,-100.00,South,182,20.0,29.0,36,0.00,,,-99.99,,2013-05-19 00:41:00,
2013-05-18 18:51:00,52.0,26.0,-100.00,SSW,195,22.0,32.0,36,0.00,,,-99.99,,2013-05-19 00:51:00,
2013-05-18 19:01:00,52.0,25.0,-100.00,SSW,192,17.0,24.0,35,0.00,,,-99.99,,2013-05-19 01:01:00,
2013-05-18 19:11:00,52.0,26.0,-100.00,South,189,15.0,24.0,37,0.00,,,-99.99,,2013-05-19 01:11:00,
2013-05-18 19:21:00,53.0,27.0,-100.00,WSW,243,7.0,12.0,37,0.00,,,-99.99,,2013-05-19 01:21:00,
2013-05-18 19:32:00,52.0,28.0,-100.00,West,265,11.0,16.0,39,0.00,,,-99.99,,2013-05-19 01:32:00,
2013-05-18 19:42:00,52.0,29.0,-100.00,West,261,12.0,19.0,42,0.00,,,-99.99,,2013-05-19 01:42:00,
2013-05-18 19:52:00,48.0,34.0,-100.00,West,264,20.0,26.0,59,0.00,,,-99.99,,2013-05-19 01:52:00,
2013-05-18 20:01:00,47.0,36.0,-100.00,WSW,254,21.0,27.0,65,0.00,,,-99.99,,2013-05-19 02:01:00,
2013-05-18 20:11:00,45.0,36.0,-100.00,West,261,19.0,27.0,71,0.00,,,-99.99,,2013-05-19 02:11:00,
2013-05-18 20:21:00,45.0,36.0,-100.00,West,260,22.0,28.0,70,0.00,,,-99.99,,2013-05-19 02:21:00,
2013-05-18 20:32:00,45.0,36.0,-100.00,WSW,250,21.0,28.0,70,0.00,,,-99.99,,2013-05-19 02:32:00,
2013-05-18 20:42:00,45.0,36.0,-100.00,WSW,244,19.0,25.0,70,0.00,,,-99.99,,2013-05-19 02:42:00,
2013-05-18 20:52:00,44.0,35.0,-100.00,SW,222,15.0,21.0,69,0.00,,,-99.99,,2013-05-19 02:52:00,
2013-05-18 21:01:00,44.0,34.0,-100.00,SSW,210,16.0,26.0,67,0.00,,,-99.99,,2013-05-19 03:01:00,
2013-05-18 21:11:00,44.0,34.0,-100.00,SSW,209,18.0,26.0,66,0.00,,,-99.99,,2013-05-19 03:11:00,
2013-05-18 21:21:00,45.0,33.0,-100.00,SSW,203,16.0,21.0,63,0.00,,,-99.99,,2013-05-19 03:21:00,
2013-05-18 21:33:00,45.0,33.0,-100.00,SW,215,15.0,22.0,61,0.00,,,-99.99,,2013-05-19 03:33:00,
2013-05-18 21:42:00,45.0,33.0,-100.00,SW,216,16.0,22.0,60,0.00,,,-99.99,,2013-05-19 03:42:00,
2013-05-18 21:53:00,45.0,32.0,-100.00,SW,220,16.0,23.0,59,0.00,,,-99.99,,2013-05-19 03:53:00,
2013-05-18 22:02:00,46.0,32.0,-100.00,SW,230,18.0,26.0,59,0.00,,,-99.99,,2013-05-19 04:02:00,
2013-05-18 22:12:00,45.0,32.0,-100.00,SW,230,17.0,24.0,60,0.00,,,-99.99,,2013-05-19 04:12:00,
2013-05-18 22:23:00,45.0,33.0,-100.00,SW,230,18.0,27.0,61,0.00,,,-99.99,,2013-05-19 04:23:00,
2013-05-18 22:33:00,46.0,32.0,-100.00,SW,226,20.0,28.0,59,0.00,,,-99.99,,2013-05-19 04:33:00,
2013-05-18 22:42:00,45.0,32.0,-100.00,SW,226,19.0,26.0,58,0.00,,,-99.99,,2013-05-19 04:42:00,
2013-05-18 22:52:00,45.0,32.0,-100.00,SW,229,19.0,27.0,58,0.00,,,-99.99,,2013-05-19 04:52:00,
2013-05-18 23:02:00,45.0,32.0,-100.00,SW,227,21.0,28.0,58,0.00,,,-99.99,,2013-05-19 05:02:00,
2013-05-18 23:12:00,45.0,32.0,-100.00,SW,227,20.0,27.0,58,0.00,,,-99.99,,2013-05-19 05:12:00,
2013-05-18 23:22:00,45.0,32.0,-100.00,SW,224,20.0,30.0,60,0.00,,,-99.99,,2013-05-19 05:22:00,
2013-05-18 23:32:00,45.0,32.0,-100.00,SW,226,22.0,29.0,60,0.00,,,-99.99,,2013-05-19 05:32:00,
2013-05-18 23:42:00,45.0,32.0,-100.00,SW,220,22.0,32.0,61,0.00,,,-99.99,,2013-05-19 05:42:00,
2013-05-18 23:51:00,44.0,32.0,-100.00,SW,216,21.0,28.0,62,0.00,,,-99.99,,2013-05-19 05:51:00,